JBU2516 KJFK-KSYR

Flight info

Callsign JBU2516
Flight time 0h 47m
Altitude 22000
Route KJFK NEION Q232 CORDS CFB T335 SYR KSYR
Aircraft A320/M-VGDW/C

Departure

Time 2026-05-09 01:47
Airport John F. Kennedy International Airport (KJFK)

Arrival

Time 2026-05-09 02:34
Airport Syracuse Hancock International Airport (KSYR)
Time Latitude Longitude Altitude Speed Heading
2026-05-09 01:17 40.64666 -73.77546 20 ft 0 kts 225°
2026-05-09 01:32 40.64675 -73.77533 23 ft 3 kts 225°
2026-05-09 01:32 40.64688 -73.77516 23 ft 3 kts 225°
2026-05-09 01:32 40.64701 -73.77499 20 ft 3 kts 225°
2026-05-09 01:33 40.64714 -73.77481 22 ft 3 kts 225°
2026-05-09 01:33 40.64727 -73.77464 20 ft 3 kts 225°
2026-05-09 01:33 40.64733 -73.77456 21 ft 0 kts 225°
2026-05-09 01:33 40.64723 -73.77462 21 ft 5 kts 191°
2026-05-09 01:34 40.64709 -73.77450 23 ft 0 kts 106°
2026-05-09 01:35 40.64706 -73.77439 20 ft 3 kts 110°
2026-05-09 01:35 40.64693 -73.77408 20 ft 5 kts 119°
2026-05-09 01:35 40.64697 -73.77364 20 ft 4 kts 49°
2026-05-09 01:35 40.64720 -73.77369 20 ft 4 kts 342°
2026-05-09 01:36 40.64735 -73.77374 22 ft 0 kts 351°
2026-05-09 01:39 40.64765 -73.77375 20 ft 2 kts 18°
2026-05-09 01:39 40.64800 -73.77326 20 ft 5 kts 91°
2026-05-09 01:39 40.64771 -73.77284 20 ft 13 kts 122°
2026-05-09 01:40 40.64718 -73.77173 20 ft 12 kts 123°
2026-05-09 01:40 40.64670 -73.77108 20 ft 10 kts 153°
2026-05-09 01:40 40.64578 -73.77089 20 ft 14 kts 184°
2026-05-09 01:40 40.64480 -73.77098 20 ft 20 kts 180°
2026-05-09 01:41 40.64418 -73.77014 20 ft 10 kts 100°
2026-05-09 01:41 40.64362 -73.76849 20 ft 27 kts 122°
2026-05-09 01:41 40.64277 -73.76668 20 ft 16 kts 126°
2026-05-09 01:41 40.64206 -73.76658 20 ft 24 kts 206°
2026-05-09 01:42 40.64066 -73.76772 20 ft 21 kts 212°
2026-05-09 01:42 40.63960 -73.76855 20 ft 16 kts 210°
2026-05-09 01:42 40.63851 -73.76912 23 ft 24 kts 183°
2026-05-09 01:42 40.63702 -73.76914 20 ft 19 kts 181°
2026-05-09 01:43 40.63590 -73.76917 20 ft 14 kts 179°
2026-05-09 01:43 40.63439 -73.76921 20 ft 44 kts 187°
2026-05-09 01:43 40.63252 -73.76946 20 ft 21 kts 179°
2026-05-09 01:43 40.63120 -73.76962 20 ft 16 kts 195°
2026-05-09 01:44 40.63035 -73.77020 20 ft 11 kts 212°
2026-05-09 01:44 40.62939 -73.77092 21 ft 18 kts 210°
2026-05-09 01:44 40.62849 -73.77163 23 ft 13 kts 213°
2026-05-09 01:44 40.62843 -73.77266 24 ft 8 kts 307°
2026-05-09 01:45 40.62850 -73.77284 22 ft 0 kts 302°
2026-05-09 01:45 40.62853 -73.77292 22 ft 0 kts 300°
2026-05-09 01:46 40.62855 -73.77296 22 ft 10 kts 300°
2026-05-09 01:46 40.63066 -73.77770 27 ft 107 kts 300°
2026-05-09 01:47 40.63607 -73.78967 26 ft 195 kts 300°
2026-05-09 01:47 40.64334 -73.80603 1142 ft 201 kts 300°
2026-05-09 01:47 40.64937 -73.82291 2384 ft 221 kts 281°
2026-05-09 01:47 40.64789 -73.84408 3234 ft 254 kts 248°
2026-05-09 01:48 40.63624 -73.86439 3580 ft 291 kts 224°
2026-05-09 01:48 40.62172 -73.87908 4363 ft 236 kts 216°
2026-05-09 01:48 40.60792 -73.88761 5022 ft 219 kts 201°
2026-05-09 01:48 40.59227 -73.89025 5805 ft 235 kts 184°
2026-05-09 01:49 40.57606 -73.88597 6739 ft 240 kts 165°
2026-05-09 01:49 40.56217 -73.87369 7745 ft 248 kts 138°
2026-05-09 01:49 40.55367 -73.85348 8925 ft 265 kts 108°
2026-05-09 01:49 40.55449 -73.82731 8981 ft 321 kts 65°
2026-05-09 01:50 40.56130 -73.79842 8341 ft 331 kts 78°
2026-05-09 01:50 40.56501 -73.76915 8137 ft 315 kts 78°
2026-05-09 01:50 40.56836 -73.74169 8090 ft 295 kts 82°
2026-05-09 01:50 40.57008 -73.71551 8029 ft 276 kts 83°
2026-05-09 01:51 40.57367 -73.68940 8383 ft 311 kts 76°
2026-05-09 01:51 40.57926 -73.66075 8701 ft 325 kts 72°
2026-05-09 01:51 40.58592 -73.63271 9045 ft 326 kts 69°
2026-05-09 01:51 40.59315 -73.60434 9411 ft 330 kts 71°
2026-05-09 01:52 40.59924 -73.57503 9753 ft 329 kts 65°
2026-05-09 01:52 40.61255 -73.54988 10301 ft 341 kts 35°
2026-05-09 01:52 40.63274 -73.53545 10939 ft 310 kts
2026-05-09 01:52 40.65364 -73.52909 10984 ft 320 kts
2026-05-09 01:53 40.67567 -73.52084 11944 ft 338 kts 11°
2026-05-09 01:53 40.69794 -73.50910 13015 ft 350 kts 15°
2026-05-09 01:53 40.72045 -73.49673 14124 ft 357 kts 14°
2026-05-09 01:53 40.74434 -73.48890 15051 ft 349 kts 354°
2026-05-09 01:54 40.76739 -73.49528 16096 ft 334 kts 328°
2026-05-09 01:54 40.78535 -73.51392 17058 ft 330 kts 307°
2026-05-09 01:54 40.79864 -73.53939 17463 ft 349 kts 294°
2026-05-09 01:54 40.80666 -73.57039 17530 ft 359 kts 280°
2026-05-09 01:55 40.80935 -73.60196 17206 ft 334 kts 271°
2026-05-09 01:55 40.81035 -73.63167 17268 ft 329 kts 275°
2026-05-09 01:55 40.81229 -73.66216 17209 ft 330 kts 273°
2026-05-09 01:55 40.81354 -73.69167 16928 ft 312 kts 276°
2026-05-09 01:56 40.81987 -73.71778 16925 ft 293 kts 301°
2026-05-09 01:56 40.83635 -73.73618 17036 ft 337 kts 329°
2026-05-09 01:56 40.86055 -73.74322 17417 ft 372 kts 347°
2026-05-09 01:56 40.88699 -73.74670 17281 ft 387 kts 346°
2026-05-09 01:57 40.91124 -73.75722 17688 ft 358 kts 326°
2026-05-09 01:57 40.92925 -73.77833 17547 ft 349 kts 303°
2026-05-09 01:57 40.94007 -73.80688 17372 ft 348 kts 291°
2026-05-09 01:57 40.95075 -73.83704 17188 ft 377 kts 295°
2026-05-09 01:58 40.96302 -73.86763 17782 ft 389 kts 297°
2026-05-09 01:58 40.97641 -73.89946 18415 ft 400 kts 298°
2026-05-09 01:58 40.98996 -73.93052 18988 ft 367 kts 298°
2026-05-09 01:58 41.00200 -73.95784 19449 ft 324 kts 297°
2026-05-09 01:59 41.01335 -73.98404 19909 ft 333 kts 297°
2026-05-09 01:59 41.02450 -74.00983 20362 ft 317 kts 297°
2026-05-09 01:59 41.03558 -74.03548 20848 ft 320 kts 297°
2026-05-09 01:59 41.04660 -74.06103 21347 ft 319 kts 297°
2026-05-09 02:00 41.05761 -74.08687 21867 ft 324 kts 295°
2026-05-09 02:00 41.06796 -74.11360 21884 ft 338 kts 294°
2026-05-09 02:00 41.07859 -74.14171 21830 ft 342 kts 293°
2026-05-09 02:00 41.08909 -74.16989 21806 ft 333 kts 293°
2026-05-09 02:01 41.09930 -74.19716 21922 ft 324 kts 294°
2026-05-09 02:01 41.10990 -74.22389 21753 ft 329 kts 296°
2026-05-09 02:01 41.12083 -74.24994 21591 ft 319 kts 296°
2026-05-09 02:01 41.13194 -74.27636 21633 ft 331 kts 296°
2026-05-09 02:02 41.14302 -74.30394 21688 ft 345 kts 295°
2026-05-09 02:02 41.15415 -74.33177 21753 ft 349 kts 295°
2026-05-09 02:02 41.16604 -74.36107 21860 ft 370 kts 296°
2026-05-09 02:02 41.17857 -74.39151 21999 ft 389 kts 296°
2026-05-09 02:03 41.19071 -74.42261 22107 ft 361 kts 291°
2026-05-09 02:03 41.19973 -74.45243 21672 ft 339 kts 289°
2026-05-09 02:03 41.20794 -74.48094 21282 ft 323 kts 288°
2026-05-09 02:03 41.21498 -74.51067 20997 ft 352 kts 283°
2026-05-09 02:04 41.22158 -74.54305 21368 ft 365 kts 283°
2026-05-09 02:04 41.23076 -74.57492 21870 ft 378 kts 294°
2026-05-09 02:04 41.24623 -74.60351 22138 ft 398 kts 306°
2026-05-09 02:04 41.26446 -74.63220 22133 ft 401 kts 308°
2026-05-09 02:05 41.28241 -74.65802 22153 ft 368 kts 309°
2026-05-09 02:05 41.30043 -74.68365 22114 ft 377 kts 309°
2026-05-09 02:05 41.31774 -74.70815 22043 ft 357 kts 308°
2026-05-09 02:05 41.33446 -74.73193 21991 ft 355 kts 308°
2026-05-09 02:06 41.35107 -74.75558 22020 ft 340 kts 308°
2026-05-09 02:06 41.36698 -74.77821 22047 ft 341 kts 308°
2026-05-09 02:06 41.38323 -74.80165 22101 ft 344 kts 308°
2026-05-09 02:07 41.41502 -74.84702 22155 ft 331 kts 308°
2026-05-09 02:07 41.43099 -74.87048 22219 ft 343 kts 306°
2026-05-09 02:07 41.44669 -74.89546 22292 ft 363 kts 304°
2026-05-09 02:07 41.46314 -74.92264 22185 ft 388 kts 305°
2026-05-09 02:08 41.48032 -74.95049 21974 ft 377 kts 306°
2026-05-09 02:08 41.49658 -74.97620 21746 ft 349 kts 306°
2026-05-09 02:08 41.51226 -74.99990 21494 ft 333 kts 308°
2026-05-09 02:08 41.52821 -75.02172 21261 ft 334 kts 311°
2026-05-09 02:09 41.54559 -75.04283 21027 ft 337 kts 314°
2026-05-09 02:09 41.56334 -75.06326 20795 ft 336 kts 314°
2026-05-09 02:09 41.58111 -75.08342 20578 ft 335 kts 314°
2026-05-09 02:09 41.59894 -75.10340 20345 ft 335 kts 314°
2026-05-09 02:10 41.61687 -75.12338 20126 ft 335 kts 314°
2026-05-09 02:10 41.63516 -75.14381 19917 ft 339 kts 315°
2026-05-09 02:10 41.65377 -75.16457 19716 ft 351 kts 315°
2026-05-09 02:10 41.67200 -75.18486 19485 ft 332 kts 314°
2026-05-09 02:11 41.68964 -75.20471 19290 ft 333 kts 314°
2026-05-09 02:11 41.70730 -75.22473 19089 ft 333 kts 314°
2026-05-09 02:11 41.72496 -75.24478 18891 ft 331 kts 314°
2026-05-09 02:11 41.74290 -75.26529 18707 ft 353 kts 314°
2026-05-09 02:12 41.76203 -75.28741 18560 ft 386 kts 315°
2026-05-09 02:12 41.78358 -75.31210 18436 ft 411 kts 315°
2026-05-09 02:12 41.80465 -75.33553 18283 ft 376 kts 316°
2026-05-09 02:12 41.82374 -75.35658 18091 ft 347 kts 315°
2026-05-09 02:13 41.84174 -75.37663 17899 ft 327 kts 314°
2026-05-09 02:13 41.85910 -75.39626 17692 ft 326 kts 314°
2026-05-09 02:13 41.87641 -75.41592 17503 ft 326 kts 314°
2026-05-09 02:13 41.89322 -75.43490 17299 ft 307 kts 314°
2026-05-09 02:14 41.91055 -75.45465 17125 ft 344 kts 314°
2026-05-09 02:14 41.92859 -75.47553 16975 ft 342 kts 314°
2026-05-09 02:14 41.94628 -75.49569 16785 ft 318 kts 314°
2026-05-09 02:14 41.96275 -75.51413 16568 ft 298 kts 314°
2026-05-09 02:15 41.97868 -75.53202 16355 ft 313 kts 314°
2026-05-09 02:15 41.99638 -75.55236 16196 ft 352 kts 314°
2026-05-09 02:15 42.01451 -75.57299 16038 ft 329 kts 314°
2026-05-09 02:15 42.03148 -75.59205 15837 ft 306 kts 314°
2026-05-09 02:16 42.04830 -75.61132 15675 ft 337 kts 313°
2026-05-09 02:16 42.06671 -75.63294 15534 ft 374 kts 314°
2026-05-09 02:16 42.08686 -75.65630 15427 ft 372 kts 315°
2026-05-09 02:16 42.10583 -75.67764 15270 ft 340 kts 315°
2026-05-09 02:17 42.12358 -75.69683 15034 ft 316 kts 315°
2026-05-09 02:17 42.14036 -75.71452 14780 ft 298 kts 317°
2026-05-09 02:17 42.15795 -75.72997 14534 ft 317 kts 321°
2026-05-09 02:17 42.17624 -75.74514 14302 ft 299 kts 321°
2026-05-09 02:18 42.18780 -75.75464 14133 ft 288 kts 321°
2026-05-09 02:18 42.20462 -75.76809 13863 ft 274 kts 322°
2026-05-09 02:18 42.22085 -75.78078 13551 ft 264 kts 322°
2026-05-09 02:18 42.23700 -75.79348 13227 ft 288 kts 322°
2026-05-09 02:19 42.25567 -75.80879 12992 ft 338 kts 322°
2026-05-09 02:19 42.27655 -75.82467 12770 ft 335 kts 326°
2026-05-09 02:19 42.29691 -75.83759 12525 ft 314 kts 329°
2026-05-09 02:19 42.31678 -75.84803 12260 ft 297 kts 332°
2026-05-09 02:20 42.33598 -75.85653 11983 ft 284 kts 335°
2026-05-09 02:20 42.35504 -75.86345 11226 ft 288 kts 339°
2026-05-09 02:20 42.37541 -75.86852 10418 ft 316 kts 345°
2026-05-09 02:20 42.39815 -75.87172 9657 ft 332 kts 347°
2026-05-09 02:21 42.41974 -75.87585 9874 ft 295 kts 346°
2026-05-09 02:21 42.44062 -75.87812 9999 ft 309 kts 351°
2026-05-09 02:21 42.46267 -75.87796 10165 ft 328 kts 356°
2026-05-09 02:21 42.48607 -75.87628 10214 ft 338 kts 355°
2026-05-09 02:22 42.50888 -75.87474 10033 ft 315 kts 356°
2026-05-09 02:22 42.53016 -75.87299 9702 ft 300 kts 354°
2026-05-09 02:22 42.55068 -75.87187 9223 ft 293 kts 357°
2026-05-09 02:22 42.57081 -75.86834 8751 ft 289 kts
2026-05-09 02:23 42.59039 -75.86319 8315 ft 286 kts
2026-05-09 02:23 42.60980 -75.85551 8007 ft 297 kts 12°
2026-05-09 02:23 42.62951 -75.84641 7806 ft 296 kts 13°
2026-05-09 02:23 42.64879 -75.83797 7742 ft 281 kts
2026-05-09 02:24 42.66727 -75.83270 7525 ft 265 kts
2026-05-09 02:24 42.68553 -75.82908 7126 ft 272 kts
2026-05-09 02:24 42.70498 -75.82668 6773 ft 288 kts 359°
2026-05-09 02:24 42.72471 -75.82475 6433 ft 279 kts 359°
2026-05-09 02:25 42.74381 -75.82275 6055 ft 271 kts 359°
2026-05-09 02:25 42.76238 -75.82073 5662 ft 268 kts 360°
2026-05-09 02:25 42.78097 -75.81872 5272 ft 267 kts
2026-05-09 02:25 42.79951 -75.81757 4942 ft 265 kts 356°
2026-05-09 02:26 42.81739 -75.81839 4631 ft 262 kts 352°
2026-05-09 02:26 42.83581 -75.82056 4377 ft 262 kts 354°
2026-05-09 02:26 42.85419 -75.82135 4216 ft 274 kts 356°
2026-05-09 02:26 42.87292 -75.82194 4120 ft 269 kts 356°
2026-05-09 02:27 42.89125 -75.82280 4040 ft 257 kts 355°
2026-05-09 02:27 42.90892 -75.82397 4049 ft 256 kts 355°
2026-05-09 02:27 42.92639 -75.82514 4089 ft 250 kts 355°
2026-05-09 02:27 42.94451 -75.82616 4169 ft 268 kts 355°
2026-05-09 02:28 42.96284 -75.82728 4264 ft 262 kts 355°
2026-05-09 02:28 42.98080 -75.82848 4343 ft 249 kts 355°
2026-05-09 02:28 42.99739 -75.82975 4325 ft 230 kts 354°
2026-05-09 02:28 43.01289 -75.83093 4244 ft 215 kts 354°
2026-05-09 02:29 43.02778 -75.83199 4131 ft 220 kts 354°
2026-05-09 02:29 43.04348 -75.83319 4108 ft 231 kts 354°
2026-05-09 02:29 43.05990 -75.83449 4161 ft 239 kts 354°
2026-05-09 02:29 43.07682 -75.83619 4269 ft 248 kts 350°
2026-05-09 02:30 43.09364 -75.84101 4408 ft 237 kts 339°
2026-05-09 02:30 43.10746 -75.85018 4503 ft 208 kts 324°
2026-05-09 02:30 43.11813 -75.86299 4191 ft 200 kts 306°
2026-05-09 02:30 43.12199 -75.88006 3943 ft 184 kts 265°
2026-05-09 02:31 43.11889 -75.89636 3579 ft 174 kts 255°
2026-05-09 02:31 43.11596 -75.91217 3114 ft 173 kts 258°
2026-05-09 02:31 43.11444 -75.92839 2632 ft 173 kts 265°
2026-05-09 02:31 43.11431 -75.94539 2301 ft 187 kts 268°
2026-05-09 02:32 43.11391 -75.96204 2225 ft 167 kts 265°
2026-05-09 02:32 43.11299 -75.98014 2268 ft 197 kts 265°
2026-05-09 02:32 43.11219 -75.99701 2129 ft 160 kts 266°
2026-05-09 02:32 43.11199 -76.01166 1809 ft 164 kts 267°
2026-05-09 02:33 43.11164 -76.02640 1486 ft 145 kts 265°
2026-05-09 02:33 43.11110 -76.04016 1190 ft 145 kts 265°
2026-05-09 02:33 43.11048 -76.05495 1087 ft 155 kts 266°
2026-05-09 02:33 43.11011 -76.06919 861 ft 160 kts 267°
2026-05-09 02:34 43.10966 -76.08324 624 ft 152 kts 267°
2026-05-09 02:34 43.10915 -76.09673 421 ft 129 kts 266°
2026-05-09 02:34 43.10883 -76.10738 419 ft 87 kts 266°
2026-05-09 02:34 43.10866 -76.11286 427 ft 33 kts 283°
2026-05-09 02:35 43.10976 -76.11348 418 ft 9 kts 43°
2026-05-09 02:35 43.10997 -76.11285 419 ft 14 kts 32°
2026-05-09 02:35 43.11062 -76.11219 420 ft 9 kts 39°
2026-05-09 02:35 43.11116 -76.11143 421 ft 23 kts 40°
2026-05-09 02:36 43.11212 -76.11037 421 ft 10 kts 76°
2026-05-09 02:36 43.11250 -76.11007 421 ft 5 kts 357°
2026-05-09 02:36 43.11255 -76.11006 421 ft 0 kts 359°